Epoch 2015 Jan. 18.0 TT = JDT 2457040.5 T 2015 Jan. 30.06921 TT MPCW q 1.2903577 (2000.0) P Q z +0.0017090 Peri. 12.39490 -0.12073166 -0.14528986 +/-0.0000001 Node 94.97559 +0.80568070 -0.59223978 e 0.9977948 Incl. 80.30212 +0.57991593 +0.79255467 From 7027 observations 2014 July 1-2016 Sept. 10, mean residual 0".5.
m1 = 2.5 + 5 logΔ + 20.0 log r(t - 25) [ , 25] ( 〜2015年 2月24日) m1 = 3.6 + 5 logΔ + 10.0 log r(t - 25) [ 25,330] (2015年 2月24日〜2015年12月26日) m1 = 1.5 + 5 logΔ + 15.0 log r [330, ] (2015年12月26日〜 )